sat.trackr.live / text

‹ back to catalog

STARLINK-33873

NORAD 63655 · 2025-083X

PAYLOAD ACTIVE UNKNOWN

§ Identity

Operator
Country
US
Launch date
2025-04-25
Launch site
AFETR
Launch vehicle
Mass (kg)
RCS (m²)

Purposes: comms

External: N2YO · Heavens-Above · Gunter

§ Orbital elements

Epoch: 2026-05-24T19:02:07.445472Z

Period
94.27 min
Inclination
43.0019°
Eccentricity
0.0001276
Mean motion
15.27607181 rev/d
Perigee alt
482.1 km
Apogee alt
483.8 km
Semi-major
6,861.1 km
B*
1.0339e-3
RAAN
295.6092°
Arg perigee
275.6405°
Mean anomaly
84.4301°
Rev number
6,173

§ Raw data

STARLINK-338731 63655U 25083X   26144.79314173  .00028322  00000+0  10339-2 0  99992 63655  43.0019 295.6092 0001276 275.6405  84.4301 15.27607181 61737

JSON: /api/v1/satellites/63655 · /tle

For live sub-satellite position, see the globe view (requires WebGL).

§ Visibility from observer

Set your observer location to see the next 7 days of passes ≥ 10°. The values pass through the URL so the page stays shareable.

No JS? Fill the form by hand. The geolocation button needs JavaScript.